This is the latest recevied weather packets stored in our database for station/object N3MFL. If no packets are shown the sender has not sent any weather packets the latest 10 day(s).
| Time | Temp. | Humidity | Pressure | Rain* | Wind** | Luminosity | Snow |
|---|---|---|---|---|---|---|---|
| 1777890176 | 2.78° C | 86% | 1012.7 hPa | 0 mm | - | 23 W/m² | - |
| 1777889873 | 2.78° C | 86% | 1012.7 hPa | 0 mm | - | 20 W/m² | - |
| 1777889571 | 2.22° C | 85% | 1012.6 hPa | 0 mm | - | 17 W/m² | - |
| 1777889268 | 2.78° C | 85% | 1012.6 hPa | 0 mm | - | 15 W/m² | - |
| 1777888966 | 2.78° C | 84% | 1012.6 hPa | 0 mm | - | 12 W/m² | - |
| 1777888663 | 2.78° C | 83% | 1012.6 hPa | 0 mm | - | 10 W/m² | - |
| 1777888358 | 2.78° C | 83% | 1012.4 hPa | 0 mm | - | 8 W/m² | - |
| 1777888055 | 2.78° C | 82% | 1012.5 hPa | 0 mm | - | 6 W/m² | - |
| 1777887752 | 3.33° C | 80% | 1012.5 hPa | 0 mm | - | 4 W/m² | - |
| 1777887449 | 3.89° C | 80% | 1012.3 hPa | 0 mm | - | 2 W/m² | - |
| 1777887144 | 3.89° C | 78% | 1012.4 hPa | 0 mm | - | 1 W/m² | - |
| 1777886840 | 3.89° C | 78% | 1012.2 hPa | 0 mm | - | 1 W/m² | - |
| 1777886536 | 4.44° C | 77% | 1012.3 hPa | 0 mm | - | 0 W/m² | - |
| 1777886235 | 5° C | 75% | 1012.3 hPa | 0 mm | - | 0 W/m² | - |
| 1777885932 | 5° C | 74% | 1012.3 hPa | 0 mm | - | 0 W/m² | - |
| 1777885631 | 5.56° C | 70% | 1012.3 hPa | 0 mm | - | 0 W/m² | - |
| 1777885329 | 5.56° C | 68% | 1012.4 hPa | 0 mm | - | 0 W/m² | - |
| 1777885027 | 5.56° C | 68% | 1012.2 hPa | 0 mm | - | 0 W/m² | - |
| 1777884722 | 5.56° C | 68% | 1012.5 hPa | 0 mm | - | 0 W/m² | - |
| 1777884419 | 5.56° C | 67% | 1012.1 hPa | 0 mm | - | 0 W/m² | - |
| 1777884115 | 5.56° C | 66% | 1012.2 hPa | 0 mm | - | 0 W/m² | - |
| 1777883813 | 5.56° C | 68% | 1012.3 hPa | 0 mm | - | 0 W/m² | - |
| 1777883509 | 5.56° C | 67% | 1012.2 hPa | 0 mm | - | 0 W/m² | - |
| 1777883205 | 5.56° C | 69% | 1012.2 hPa | 0 mm | - | 0 W/m² | - |
| 1777882902 | 5° C | 75% | 1012.1 hPa | 0 mm | - | 0 W/m² | - |
* Rain latest hour (hover to see other rain measurements)
** Current wind speed in m/s (hover to see current wind gust speed)